EW5516 Weather Reports


time (UTC)temp
C
wind
direction
speed
KPH
gust
KPH
rain 1hr
cm
rain 24hr
cm
rain mn
cm
humidity
%
barometer
mb
20260507140021 13 37 0.0 0.0 0.00 0.00 0.00 94 1015.7
20260507135041 12 41 0.0 0.0 0.00 0.00 0.00 95 1015.5
20260507134021 12 68 1.6 3.2 0.00 0.00 0.00 94 1015.4
20260507133021 12 45 4.8 6.4 0.00 0.00 0.00 94 1015.4
20260507132040 12 45 1.6 3.2 0.00 0.00 0.00 94 1015.3
20260507131042 12 45 1.6 3.2 0.00 0.00 0.00 94 1015.4
20260507130021 11 23 3.2 6.4 0.00 0.00 0.00 94 1015.3
20260507125021 11 45 3.2 6.4 0.00 0.00 0.00 94 1015.2
20260507124021 11 45 1.6 6.4 0.00 0.00 0.00 94 1015.0
20260507123021 12 45 3.2 4.8 0.00 0.00 0.00 93 1015.0
20260507122020 12 23 3.2 4.8 0.00 0.00 0.00 94 1015.1
20260507121021 11 68 1.6 4.8 0.00 0.00 0.00 93 1015.0
20260507120021 11 45 1.6 4.8 0.00 0.00 0.00 94 1015.0
20260507115020 11 45 3.2 6.4 0.00 0.00 0.00 93 1015.0
20260507114021 11 90 4.8 6.4 0.00 0.00 0.00 94 1015.0
20260507113020 11 45 3.2 6.4 0.00 0.00 0.00 92 1014.9
20260507112021 11 45 3.2 6.4 0.00 0.00 0.00 93 1015.0
20260507111021 11 45 3.2 6.4 0.00 0.00 0.00 93 1015.0
20260507110021 11 45 3.2 6.4 0.00 0.00 0.00 93 1015.1
20260507105020 11 90 1.6 3.2 0.00 0.00 0.00 93 1015.1
20260507104020 11 90 3.2 6.4 0.00 0.00 0.00 93 1015.3
20260507103020 11 45 3.2 6.4 0.00 0.00 0.00 92 1015.3
20260507102021 11 23 3.2 4.8 0.00 0.00 0.00 92 1015.3
20260507101020 11 23 3.2 6.4 0.00 0.00 0.00 92 1015.3
20260507100020 11 68 1.6 3.2 0.00 0.00 0.00 93 1015.4
20260507095021 11 68 3.2 6.4 0.00 0.00 0.00 93 1015.6
20260507094041 11 45 3.2 6.4 0.00 0.00 0.00 92 1015.6
20260507093021 11 90 1.6 4.8 0.00 0.00 0.00 92 1015.6
20260507092020 11 45 3.2 4.8 0.00 0.00 0.00 92 1015.7
20260507091022 11 23 3.2 4.8 0.00 0.00 0.00 92 1015.8
20260507090041 11 23 3.2 6.4 0.00 0.00 0.00 91 1015.8
20260507085020 11 90 1.6 4.8 0.00 0.00 0.00 92 1016.0
20260507084041 11 90 1.6 3.2 0.00 0.00 0.00 92 1016.0
20260507083022 11 68 3.2 4.8 0.00 0.00 0.00 92 1016.1
20260507082020 11 45 3.2 6.4 0.00 0.00 0.00 91 1016.0
20260507081020 11 90 1.6 4.8 0.00 0.00 0.00 91 1016.3
20260507080020 12 90 1.6 4.8 0.00 0.00 0.00 91 1016.3
20260507075022 12 113 3.2 4.8 0.00 0.00 0.00 91 1016.4
20260507074041 11 68 3.2 4.8 0.00 0.00 0.00 91 1016.4
20260507073021 11 45 3.2 4.8 0.00 0.00 0.00 91 1016.4
20260507072022 12 45 1.6 4.8 0.00 0.00 0.00 91 1016.5
20260507071042 12 45 1.6 4.8 0.00 0.00 0.00 90 1016.6
20260507070022 12 45 1.6 4.8 0.00 0.00 0.00 90 1016.4
20260507065041 12 45 1.6 3.2 0.00 0.00 0.00 91 1016.4
20260507064041 12 45 1.6 3.2 0.00 0.00 0.00 90 1016.5
20260507063021 12 45 1.6 4.8 0.00 0.00 0.00 90 1016.6
20260507062020 12 45 1.6 3.2 0.00 0.00 0.00 90 1016.6
20260507061020 12 45 0.0 1.6 0.00 0.00 0.00 90 1016.6
20260507060021 12 45 1.6 6.4 0.00 0.00 0.00 90 1016.6
20260507055021 12 105 0.0 0.0 0.00 0.00 0.00 89 1016.6
20260507054020 12 117 0.0 0.0 0.00 0.00 0.00 89 1016.5
20260507053020 13 117 0.0 0.0 0.00 0.00 0.00 89 1016.5
20260507052020 13 117 0.0 0.0 0.00 0.00 0.00 89 1016.5
20260507051021 13 117 0.0 0.0 0.00 0.00 0.00 88 1016.5
20260507050021 13 144 0.0 0.0 0.00 0.00 0.00 89 1016.4
20260507045025 13 148 0.0 0.0 0.00 0.00 0.00 88 1016.3
20260507044020 13 150 0.0 0.0 0.00 0.00 0.00 87 1016.3
20260507043020 13 153 0.0 0.0 0.00 0.00 0.00 87 1016.3
20260507042022 13 154 0.0 0.0 0.00 0.00 0.00 87 1016.2
20260507041021 14 154 0.0 0.0 0.00 0.00 0.00 87 1016.1
20260507040021 14 158 0.0 3.2 0.00 0.00 0.00 86 1016.2
20260507035021 15 225 1.6 3.2 0.00 0.00 0.00 85 1016.1
20260507034022 15 225 1.6 3.2 0.00 0.00 0.00 84 1015.9
20260507033021 15 248 0.0 1.6 0.00 0.00 0.00 84 1015.9
20260507032021 16 264 0.0 0.0 0.00 0.00 0.00 82 1015.8
20260507031021 16 270 0.0 1.6 0.00 0.00 0.00 81 1015.7
20260507030021 16 265 0.0 0.0 0.00 0.00 0.00 81 1015.6
20260507025021 17 270 0.0 3.2 0.00 0.00 0.00 80 1015.6
20260507024022 17 248 1.6 4.8 0.00 0.00 0.00 78 1015.5
20260507023041 17 225 1.6 6.4 0.00 0.00 0.00 75 1015.4
20260507022021 18 293 0.0 4.8 0.00 0.00 0.00 73 1015.4
20260507021022 18 248 1.6 4.8 0.00 0.00 0.00 71 1015.3
20260507020022 18 293 1.6 4.8 0.00 0.00 0.00 70 1015.3
20260507015021 19 248 3.2 6.4 0.00 0.00 0.00 68 1015.2
20260507014021 19 293 1.6 6.4 0.00 0.00 0.00 67 1015.3
20260507013022 19 248 3.2 6.4 0.00 0.00 0.00 66 1015.2
20260507012022 20 270 3.2 6.4 0.00 0.00 0.00 68 1015.2
20260507011021 20 225 3.2 8.0 0.00 0.00 0.00 67 1015.2
20260507010021 20 293 3.2 11.3 0.00 0.00 0.00 68 1015.1
20260507005021 20 248 4.8 12.9 0.00 0.00 0.00 71 1015.1
20260507004021 20 225 4.8 14.5 0.00 0.00 0.00 70 1015.1
20260507003021 20 248 4.8 16.1 0.00 0.00 0.00 69 1015.0
20260507002021 20 225 3.2 6.4 0.00 0.00 0.00 68 1014.9
20260507001021 20 270 3.2 9.7 0.00 0.00 0.00 66 1014.8
20260507000041 20 248 3.2 9.7 0.00 0.00 0.00 65 1014.9
20260506235022 20 270 4.8 11.3 0.00 0.00 0.00 64 1014.7
20260506234022 20 315 4.8 9.7 0.00 0.00 0.00 65 1014.7
20260506233042 20 293 4.8 11.3 0.00 0.00 0.00 67 1014.8
20260506232021 20 270 4.8 11.3 0.00 0.00 0.00 64 1014.9
20260506231021 21 270 4.8 12.9 0.00 0.00 0.00 65 1015.0
20260506230021 20 270 4.8 9.7 0.00 0.00 0.00 67 1015.0
20260506225041 20 293 6.4 12.9 0.00 0.00 0.00 68 1015.1
20260506224022 20 225 4.8 11.3 0.00 0.00 0.00 66 1015.2
20260506223042 20 225 4.8 14.5 0.00 0.00 0.00 67 1015.2
20260506222020 20 270 6.4 14.5 0.00 0.00 0.00 66 1015.3
20260506221021 20 315 4.8 11.3 0.00 0.00 0.00 68 1015.4
20260506220021 20 293 4.8 14.5 0.00 0.00 0.00 69 1015.5
20260506215026 20 293 4.8 11.3 0.00 0.00 0.00 68 1015.6
20260506214021 20 248 4.8 17.7 0.00 0.00 0.00 68 1015.5
20260506213021 20 270 6.4 12.9 0.00 0.00 0.00 67 1015.6
20260506212021 20 293 4.8 14.5 0.00 0.00 0.00 67 1015.6
20260506211021 21 270 4.8 14.5 0.00 0.00 0.00 67 1015.7
20260506210041 20 248 6.4 19.3 0.00 0.00 0.00 67 1015.8
20260506205021 20 293 6.4 12.9 0.00 0.00 0.00 67 1015.9
20260506204020 20 248 8.0 14.5 0.00 0.00 0.00 68 1015.8
20260506203021 20 270 6.4 16.1 0.00 0.00 0.00 68 1016.0
20260506202021 20 315 6.4 16.1 0.00 0.00 0.00 67 1016.0
20260506201021 20 248 6.4 11.3 0.00 0.00 0.00 68 1016.1
20260506200021 20 293 4.8 9.7 0.00 0.00 0.00 67 1016.1
20260506195020 20 270 8.0 14.5 0.00 0.00 0.00 66 1016.2
20260506194025 21 293 6.4 17.7 0.00 0.00 0.00 67 1016.3
20260506193047 20 293 6.4 14.5 0.00 0.00 0.00 65 1016.4
20260506192021 20 225 6.4 16.1 0.00 0.00 0.00 65 1016.5
20260506191020 20 225 4.8 12.9 0.00 0.00 0.00 66 1016.4
20260506190020 21 248 4.8 11.3 0.00 0.00 0.00 65 1016.4
20260506185020 21 248 4.8 11.3 0.00 0.00 0.00 66 1016.5
20260506184021 20 315 4.8 11.3 0.00 0.00 0.00 67 1016.7
20260506183021 20 293 4.8 12.9 0.00 0.00 0.00 66 1016.7
20260506182020 21 23 3.2 9.7 0.00 0.00 0.00 66 1016.9
20260506181041 20 225 3.2 11.3 0.00 0.00 0.00 66 1016.9
20260506180041 20 315 3.2 11.3 0.00 0.00 0.00 67 1017.1
20260506175041 19 225 4.8 9.7 0.00 0.00 0.00 69 1017.1
20260506174021 19 225 4.8 8.0 0.00 0.00 0.00 68 1017.1
20260506173041 19 315 3.2 8.0 0.00 0.00 0.00 67 1017.2
20260506172021 18 203 3.2 11.3 0.00 0.00 0.00 68 1017.4
20260506171040 18 203 3.2 6.4 0.00 0.00 0.00 67 1017.4
20260506170020 18 225 3.2 9.7 0.00 0.00 0.00 69 1017.5
20260506165022 18 225 1.6 6.4 0.00 0.00 0.00 69 1017.5
20260506164022 18 248 1.6 4.8 0.00 0.00 0.00 71 1017.5
20260506163020 17 225 3.2 6.4 0.00 0.00 0.00 71 1017.5
20260506162021 17 315 1.6 4.8 0.00 0.00 0.00 73 1017.4
20260506161021 17 293 3.2 6.4 0.00 0.00 0.00 72 1017.4
20260506160020 17 158 1.6 4.8 0.00 0.00 0.00 74 1017.5
20260506155022 16 203 1.6 4.8 0.00 0.00 0.00 75 1017.6
20260506154042 17 158 1.6 4.8 0.00 0.00 0.00 75 1017.6
20260506153108 16 203 1.6 4.8 0.00 0.00 0.00 77 1017.6
20260506152020 15 0 1.6 3.2 0.00 0.00 0.00 79 1017.6
20260506151022 15 45 3.2 6.4 0.00 0.00 0.00 80 1017.6
20260506150047 14 23 3.2 6.4 0.00 0.03 0.00 82 1017.7
20260506145021 13 45 4.8 8.0 0.00 0.03 0.00 83 1017.7
20260506144020 13 90 3.2 9.7 0.00 0.03 0.00 85 1017.7
20260506143042 12 45 4.8 8.0 0.00 0.03 0.00 87 1017.6
20260506142022 12 90 6.4 9.7 0.00 0.03 0.00 88 1017.5
20260506141022 11 45 4.8 8.0 0.00 0.03 0.00 89 1017.5